Location: Leo
(52.0556°N, 112.3605°W)
Time: 19:32:59
(UTC+00:00)

Envisat - Visible Passes

Search period start: 30 May 2024 00:00
Search period end: 09 June 2024 00:00
Orbit: 762 x 764 km, 98.3° (Epoch: 30 May)

Date Brightness Start Highest point End Pass type
(mag) Time Alt. Az. Time Alt. Az. Time Alt. Az.
31 May 5.0 09:52:12 10° NE 09:56:18 24° E 10:00:22 10° SE visible
01 Jun 5.6 09:16:28 10° ENE 09:18:25 12° E 09:20:22 10° ESE visible
02 Jun 4.4 10:16:04 10° NNE 10:20:46 37° E 10:25:27 10° SSE visible
03 Jun 5.3 09:39:26 10° NE 09:43:02 19° E 09:46:37 10° SE visible
05 Jun 4.7 10:03:07 10° NNE 10:07:33 29° E 10:11:58 10° SSE visible
06 Jun 5.5 09:26:49 10° NE 09:29:45 15° E 09:32:38 10° ESE visible
08 Jun 5.0 09:50:15 10° NE 09:54:19 23° E 09:58:20 10° SE visible
